Location: Churchill Northern Studies Centre
(58.7378°N, 93.8201°W)
Time: 10:56:40
(UTC-05:00)

ISS - Pass Details

Date: 08 October 2017
Orbit: 401 x 408 km, 51.6° (Epoch: 22 October)

Event Time Altitude Azimuth Distance (km) Brightness Sun altitude
Rises 20:22:13 0° 263° (W) 2,328 1.4 -15.6°
Reaches altitude 10° 20:24:48 10° 242° (WSW) 1,468 -0.3 -15.9°
Maximum altitude 20:26:59 17° 200° (SSW) 1,130 -1.5 -16.2°
Enters shadow 20:28:11 14° 174° (S) 1,241 -1.6 -16.4°
